Regional Weather Roundup
Issued by NWS

Home | Current Version | Previous Version | Graphics & Text | Print | Product List | Glossary Off
Versions: 1 2 3 4 5 6 7 8 9 10 11 12 13 14 15 16 17 18 19 20 21 22 23 24 25 26 27 28 29 30 31 32 33 34 35 36 37 38 39 40 41 42 43 44 45 46 47 48 49 50

000
ASUS43 KMPX 282301
RWRMN
WEATHER ROUNDUP FOR MINNESOTA
NATIONAL WEATHER SERVICE TWIN CITIES/CHANHASSEN MN
600 PM CDT THU JUL 28 2016


NOTE: "FAIR" INDICATES FEW OR NO CLOUDS BELOW 12,000 FEET WITH NO
SIGNIFICANT WEATHER AND/OR OBSTRUCTIONS TO VISIBILITY. N/A MEANS
CURRENT SKY AND/OR WEATHER CONDITIONS ARE NOT AVAILABLE.

MNZ060>063-068>070-290000-
   Twin Cities Metro

CITY           SKY/WX    TMP DP  RH WIND       PRES   REMARKS
TWIN CITIES    CLOUDY    75  57  53 NE10G21   30.02R
ST PAUL        CLOUDY    74  57  55 N14       30.02R
CRYSTAL        CLOUDY    76  53  44 NE14      30.01R
BLAINE         PTSUNNY   77  55  47 N13G18    30.03R
LAKEVILLE      CLOUDY    72  63  73 N8        30.02R
EDEN PRAIRIE   CLOUDY    75  58  55 N6        30.01R
LAKEVILLE      CLOUDY    72  63  73 N8        30.02R
SOUTH ST PAUL  CLOUDY    74  57  55 N9        30.01S
LAKE ELMO      PTSUNNY   73  59  60 N5        30.03R
$$
MNZ001>005-007-008-013>017-022>024-027-028-290000-
   Northwest Minnesota

CITY           SKY/WX    TMP DP  RH WIND       PRES   REMARKS
HALLOCK        SUNNY     75  54  46 NW7       30.09S
ROSEAU         SUNNY     73  57  56 N5        30.10S
WARROAD        SUNNY     72  57  60 E6        30.11F
THIEF RVR FALL SUNNY     74  54  49 N7        30.10
CROOKSTON      SUNNY     75  57  53 N10       30.09S
FOSSTON        SUNNY     77  57  50 N9        30.09S
DETROIT LAKES  SUNNY     77  55  47 N7        30.08S
MOORHEAD       SUNNY     79  63  57 N10G17    30.06S
PARK RAPIDS    MOSUNNY   79  53  40 NE5       30.07R
MAHNOMEN       FAIR      75  58  54 N10       30.08R
$$
MNZ006-009>011-018-025>026-290000-
   North Central Minnesota

CITY           SKY/WX    TMP DP  RH WIND       PRES   REMARKS
BAUDETTE       SUNNY     75  56  51 N9        30.09F
FLAG ISLAND    SUNNY     72  48  43 N3        30.10S
INTL FALLS     SUNNY     76  52  43 CALM      30.08S
WASKISH        SUNNY     75  55  50 NW6       30.07F
BIG FORK       SUNNY     77  54  44 NW5       30.07S
LONGVILLE      SUNNY     77  52  41 N6        30.07R
GRAND RAPIDS   CLOUDY    75  58  55 NE6G16    30.08S
CRANE LAKE     SUNNY     72  54  53 N3        30.08F
ORR            MOSUNNY   72  57  60 CALM      30.05S
COOK           PTSUNNY   75  54  46 CALM      30.07S
WALKER         FAIR      73  56  55 N5        30.07R
$$
MNZ012-019>021-037-290000-
   Northeast Minnesota

CITY           SKY/WX    TMP DP  RH WIND       PRES   REMARKS
DULUTH         CLOUDY    69  50  50 E16       30.08S
ELY            SUNNY     75  45  33 NE3       30.07S
HIBBING        PTSUNNY   75  54  47 NE6       30.06S
EVELETH        MOSUNNY   75  51  41 CALM      30.08S
DULUTH HARBOR  CLOUDY    66  61  82 NE14      30.08S
TWO HARBORS    CLOUDY    72  55  56 E8        30.07F
SILVER BAY     CLOUDY    70  52  52 E7        30.08S
GRAND MARAIS     N/A     66  55  67 E3        30.09S
$$
MNZ029>031-032-039>041-046>048-054>057-064-290000-
   West Central Minnesota

CITY           SKY/WX    TMP DP  RH WIND       PRES   REMARKS
FERGUS FALLS   CLOUDY    77  61  57 N7        30.06F
WHEATON        SUNNY     79  63  57 CALM      30.06S
MORRIS         MOSUNNY   79  57  47 CALM      30.05S
ALEXANDRIA     CLOUDY    74  56  53 E8        30.08S
ELBOW LAKE     FAIR      75  61  61 N3        30.06S
WADENA         MOSUNNY   75  57  53 NE10      30.06S
GLENWOOD       MOSUNNY   75  55  50 NE8       30.08S
APPLETON       SUNNY     77  55  47 E6        30.05S
BENSON         PTSUNNY   77  55  47 E7        30.06R
ORTONVILLE     MOSUNNY   77  57  50 E6        30.05F
MADISON        MOSUNNY   75  57  53 NE9       30.05F
WILLMAR        FAIR      75  55  50 E6        30.07R
$$
MNZ033>034-036-042>043-049>051-058-059-290000-
   Central Minnesota

CITY           SKY/WX    TMP DP  RH WIND       PRES   REMARKS
ST CLOUD       MOSUNNY   74  58  57 NE5       30.05R
SAUK CENTRE    FAIR      74  56  51 NE8       30.07S
PAYNESVILLE    MOSUNNY   74  55  52 NE10G16   30.06S
AITKIN         CLOUDY    75  55  50 CALM      30.05R
PINE RIVER     SUNNY     75  57  53 N7        30.09S
BRAINERD       CLOUDY    73  58  59 SE3       30.06S
STAPLES        SUNNY     75  57  53 CALM      30.06S
LONG PRAIRIE   FAIR      73  54  49 N5        30.08R
LITTLE FALLS   MOSUNNY   72  54  53 E3        30.07R
LITCHFIELD     SUNNY     75  57  53 E9        30.06R
BUFFALO        PTSUNNY   73  57  56 N9        30.05R
MAPLE LAKE     SUNNY     74  60  62 N6        30.05S
HUTCHINSON     SUNNY     75  58  55 NE12      30.05R
$$
MNZ037-044-045-052-053-290000-
   East Central Minnesota

CITY           SKY/WX    TMP DP  RH WIND       PRES   REMARKS
PRINCETON      MOSUNNY   75  54  46 NE8       30.05R
MORA           MOSUNNY   68  52  56 CALM      30.07R
CAMBRIDGE      MOSUNNY   75  57  53 N7        30.03R
RUSH CITY      MOSUNNY   73  58  61 NE9       30.05R
MOOSE LAKE     CLOUDY    70  52  52 E5        30.05S
HINCKLEY       FAIR      70  55  60 NE7       30.06S
CLOQUET        CLOUDY    68  48  49 E12G18    30.08S
MCGREGOR       CLOUDY    73  55  53 SE7       30.07S
$$
MNZ071>073-080-081-089-090-097-098-290000-
   Southwest Minnesota

CITY           SKY/WX    TMP DP  RH WIND       PRES   REMARKS
MONTEVIDEO     SUNNY     75  55  50 NE12      30.07F
GRANITE FALLS  SUNNY     77  58  51 N12       30.06S
CANBY          SUNNY     77  57  50 E10       30.05F
MARSHALL       SUNNY     75  54  47 NE16      30.04F
REDWOOD FALLS  PTSUNNY   75  58  55 N9        30.03S
OLIVIA         SUNNY     73  57  56 N10       30.05R
PIPESTONE      SUNNY     75  57  53 NE9       30.05S
WINDOM         MOSUNNY   75  61  60 N10       30.03S
WORTHINGTON    MOSUNNY   74  60  61 N13       30.04R
JACKSON        PTSUNNY   73  61  64 NE13      30.03R
TRACY          MOSUNNY   75  59  56 N12       30.04S
SLAYTON        MOSUNNY   74  59  58 N13       30.06R
$$
MNZ065>067-074>077-082>085-091>093-290000-
   South Central Minnesota

CITY           SKY/WX    TMP DP  RH WIND       PRES   REMARKS
MANKATO        PTSUNNY   73  61  64 N15       30.02S
NEW ULM        CLOUDY    73  61  64 N7        30.02S
ST JAMES       MOSUNNY   68  59  73 N7        30.02S
FAIRMONT       MOSUNNY   73  63  68 N8G16     30.00S
GLENCOE        SUNNY     75  60  59 N7        30.03S
FARIBAULT      CLOUDY    72  63  73 N5        30.02S
OWATONNA       CLOUDY    70  63  78 NE10      30.02R
WASECA         CLOUDY    68  63  83 N8        30.03S
ALBERT LEA     CLOUDY    70  64  83 NE10G18   30.01R
$$
MNZ078>079-086>088-094>096-290000-
   Southeast Minnesota

CITY           SKY/WX    TMP DP  RH WIND       PRES   REMARKS
ROCHESTER      LGT RAIN  66  64  93 NE10      30.02R
RED WING       CLOUDY    73  63  68 E5        30.00R
STANTON        CLOUDY    73  63  68 N5        30.00S
DODGE CENTER   CLOUDY   N/A N/A N/A NE9       30.02R
WINONA         CLOUDY    70  63  78 NE5       30.00R
AUSTIN         CLOUDY    70  63  78 NE9       30.00S
PRESTON        CLOUDY    66  60  82 NE10      30.01R
$$
ABBREVIATIONS USED IN REMARKS
   TC - TEMPERATURES IN CELSIUS
  WCI - WIND CHILL INDEX
   HX - HEAT INDEX
  VSB - VISIBILITY
$$



USA.gov is the U.S. government's official web portal to all federal, state and local government web resources and services.